[Date Prev][Date Next][Thread Prev][Thread Next][Date Index][Thread Index]

[jamsat-news:1235] jas2info #175



========================   最新情報   ==============================

        Last updated :Sat.4-Mar.-2000 15:15 (JST) #175

====================================================================
   
  1)アマチュア通信衛星情報 FOシリーズの軌道要素、テレメトリ、
   QSOの状況等をまとめてみました.
   
   FO-29の3月4日(土)のテレメトリはアナログ系運用で周波数は
  〜435.787MHzのCWで11:22〜11:28(JST)
  に受信できました.
  現在まで、当局で取得したデータの1部を掲載しておきます.
    
 AS17508C1   4Mar2000
 11:22-11:28(JST)
 Freq. - 435.787MHz

 HI HI AE C7 88 55 12 25 FF 0D 00 2E 67 7E 81 60 92 90 B0 7B B7 B4 B6 B7 B7 
 HI HI AE C7 88 55 17 25 FF 0D 00 2E A6 7C 86 60 92 80 B0    B6 B4 B6 B7 B7
 HI HI AE C7 88 55 1C 25 FF 0D 00 2E 28 72 8B 60 92 80 B0 59 B6 B4 B5 B6 B7
 HI HI AE C7 88 55 01 25 FF 0D 00 2E A3 98 8A 60 92 90 B0 A8 B6 B4 B5 B6 B6 
 HI HI AE C7 88 55 06 25 FF 0D 00 2E 0A 70 91 60 92 90 B0 67 B6 B3 B5 B6 B7 
 HI HI AE C7 88 55 0C 25 FF 0D 00 2E 93 AF 85 60 92 90 B0 57 B6 B3 B5 B6 B7 
 HI HI AE C7 88 55 11 25 FF 0D 00 2E 3E 77 8F 60 92 90 B0 6F B6 B3 B5 B6 B6 

 AS17454C1  29Feb2000
 11:22-11:37(JST)
 Freq.435.804-.787MHz

 HI HI AE C7 88 55 00 68 E8 7A 09 6C 6F 3E 90 5F 94 92 B0 75 B8 B6 B8 B8 B7 
 HI HI AE C7 88 55 00 68 F8 7A 09 67 6C 4C 8C 5F 92 90 B0 79 B8 B6 B8 B8 B7 
 HI HI AE C7 88 55 00 68 F8 7A 09 67 86 49 88 60 93 90 B0 6A B8 B5 B7 B7 B7 
 HI HI AE C7 88 55 00 68 F5 7A 09 61 59 41 8E 61 94 91 B0 7A B8 B5 B7 B8 B7 
 HI HI AE C7 88 55 00 68 F5 7A 09 61 8C 55 8D 5F 92 90 B0 71 B8 B5 B7 B7 B7 
 HI HI AE C7 88 55 00 68 C4 7A 09 22 5D 40 8C 61 94 92 B0 8E B8 B5 B7 B7 B7 
 HI HI AE C7 88 55 00 68 C4 7A 09 22 78 54 88 60 92 90 B0 7E B7 B5 B7 B7 B7 
 HI HI AE C7 88 55 00 68 73 7A 09 2C 7A 4F 95 5F 92 90 B0 88 B7 B5 B7 B7 B7 
 HI HI AE C7 88 55 00 68 F3 79 09 2B 4F 4D 90 5F 92 90 B0 7B B7 B4 B6 B7 B7 
 HI HI AE C7 88 55 00 68 F3 79 09 2B 9A 61 8A 5F 92 90 B0 83 B7 B4 B6 B7 B6 
 HI HI AE C7 88 55 00 68 5D 79 09 3A 37 52 91 5F 92 90 B0 87 B7 B4 B6 B7 B7 
 HI HI AE C7 88 55 00 68 5D 79 09 3A 9E 65 90 5F 92 90 B0 94 B7 B4 B6 B7 B7 
 HI HI AE C7 88 55 00 68 C5 78 09 34 44 6C 8F 60 92 90 B0 74 B7 B4 B6 B6 B7 
 HI HI AE C7 88 55 00 68 C5 78 09 34 7A 5E 88 60 92 90 B0 6F B6 B4 B6 B6 B7 
 HI HI AE C7 88 55 00 68 2E 78 09 33 70 85 89 60 92 90 B0 79 B6 B3 B5 B6 B7 
 HI HI AE C7 88 55 00 68 2E 77 09 12 59 58 8D 60 92 90 B0 77 B6 B3 B5 B6 B7 
 HI HI AE C7 88 55 00 68 AA 77 09 1A 45 87 8F 60 92 90 B0 93 B6 B3 B5 B6 B7 
 HI HI AE C7 88 55 00 68 5E 77 09 17 29 8D 8A 60 93 90 B0 7D B6 B3 B5 B6 B7 
 HI HI AE C7 88 55 00 68 4F 77 09 17 A5 76 8A 60 93 90 B0 85 B6 B3 B5 B6 B7 
 HI HI AE C7 88 55 00 68 24 77 09 1C 44 AE 87 60 93 90 B0 86 B6 B3 B5 B6 B7

 AS17455C1  29Feb2000
 13:06 - 13:21 (JST)

 HI HI AE C7 88 55 00 68 33 78 09 10 57 40 87 60 93 90 B0 68 B8 B6 B8 B8 B7 
 HI HI AE C7 88 55 00 68 33 78 09 12 79 3D 91 60 93 90 B0 79 B8 B6 B8 B8 B7 
 HI HI AE C7 88 55 00 68 FE 77 09 12 5F 48 96 60 93 91 B0 89 B8 B6 B7 B7 B7 
 HI HI AE C7 88 55 00 68 06 78 09 17 5D 3B 91 60 94 91 B0 76 B8 B5 B7 B7 B7 
 HI HI AE C7 88 55 00 68 06 78 09 17 79 41 95 5F 92 8F B0 7B B8 B5 B7 B7 B7 
 HI HI AE C7 88 55 00 68 28 78 09 14 4B 4C 96 60 92 90 B0 7E B7 B5 B7 B7 B7 
 HI HI AE C7 88 55 00 68 28 78 09 14 77 39 93 60 94 91 B0 6A B7 B5 B7 B7 B7 
 HI HI AE C7 88 55 00 68 7E 78 09 14 5F 57 96 60 92 90 B0 7C B7 B5 B7 B7 B7 
 HI HI AE C7 88 55 00 68 F3 78 09 14 54 3F 9A 5F 92 90 A0 86 B7 B5 B7 B7 B7 
 HI HI AE C7 88 55 00 68 F3 78 09 14 83 50 9A 5F 93 90 B1 87 B7 B5 B6 B7 B7 
 HI HI AE C7 88 55 00 68 82 79 09 14 90 55 8E 5F 93 90 B0 76 B7 B4 B6 B6 B7 
 HI HI AE C7 88 55 00 68 82 79 09 15 96 42 8E 5F 92 90 B0 C6 B7 B4 B6 B6 B7 
 HI HI AE C7 88 55 00 68 2C 7A 09 17 3A 73 8B 60 92 90 B0 7E B7 B4 B6 B6 B7 
 HI HI AE C7 88 55 00 68 2C 7A 09 17 83 47 85 5F 92 8F B0 89 B6 B4 B6 B6 B7 
 HI HI AE C7 88 55 00 68 E0 7A 09 13 5F 79 7E 60 92 90 B0 72 B6 B4 B6 B6 B7 
 HI HI AE C7 88 55 00 68 E0 7A 09 30 58 61 8A 60 92 90 B0 8E B6 B4 B6 B6 B7 
 HI HI AE C7 88 55 00 68 91 7B 09 30 96 6D 90 5F 92 90 B0 A7 B6 B3 B5 B5 B6 
 HI HI AE C7 88 55 00 68 29 7C 09 36 2F 85 85 60 92 90 B0 77 B6 B3 B5 B5 B7 
 HI HI AE C7 88 55 00 68 29 7C 09 36 AE 5C 86 60 92 90 B0 78 B5 B3 B5 B5 B6 
 HI HI AE C7 88 55 00 7C 8E 7C 09 3C 2F 95 8B 60 92 90 B0 70 B5 B3 B5 B5 B6 
 
 AS17468C1  01Mar2000
 12:10-12:28(JST)
 Freq.435.804-.786MHz

 HI HI AE C7 88 55 00 68 2A 80 09 6D 7C 55 96 60 93 91 B0 8A B8 B6 B8 B8 B6 
 HI HI AE C7 88 55 00 68 2A 80 09 6D 75 3E 91 60 93 90 B0 83 B8 B6 B8 B8 B6 
 HI HI AE C7 88 55 00 68 3F 80 09 65 66 44 8E 60 93 90 B0 8D B8 B6 B8 B8 B6 
 HI HI AE 07 88 55 00 68 3F 80 09 65 83 47 87 60 92 90 B0 6F B8 B6 B7 B7 B6 
 HI HI AE C7 88 55 00 68 37 80 09 63 68 3B 91 60 93 90 B0 6E B8 B6 B7 B7 B6 
 HI HI AE C7 88 55 00 68 10 80 09 23 71 44 92 60 93 90 B0 69 B8 B5 B7 B7 B6 
 HI HI AE C7 88 55 00 68 10 80 09 23 82 45 8B 60 93 91 B0 7B B7 B5 B7 B7 B6 
 HI HI AE C7 88 55 00 68 C2 7F 09 24 57 3D 9E 60 93 8F B0 7B B7 B5 B7 B7 B6 
 HI HI AE C7 88 55 00 68 C2 7F 09 24 8D 4B 91 60 92 90 B0 80 B7 B5 B6 B7 B6 
 HI HI AE C7 88 55 00 68 4C 7F 09 2A 56 43 8F 60 94 91 B0 96 B7 B5 B6 B7 B6 
 HI HI AE C7 88 55 00 68 4C 7F 09 2A 7D 49 87 5F 92 90 B0 A7 B7 B4 B6 B7 B6 
 HI HI AE C7 88 55 00 68 CB 7E 09 39 6C 56 90 60 94 91 B0 76 B7 B4 B6 B6 B6 
 HI HI AE C7 88 55 00 68 CB 7E 09 3F 5B 48 8C 5F 92 90 B0 7E B7 B4 B6 B6 B6 
 HI HI AE C7 88 55 00 68 42 7E 09 3F 89 62 8F 60 92 90 B0 7E B7 B4 B6 B6 B6
 HI HI AE C7 88 55 00 68 10 7D 09 37 38 5E 8E 60 92 90 B0 7B B7 B4 B6 B6 B6
 HI HI AE 07 88 55 00 68 C1 7D 09 37 A4 62 84 60 93 91 B0 6D B6 B3 B5 B6 B6 
 HI HI AE C7 88 55 00 68 5F 7D 09 31 2E 6F 8C 60 93 90 B0 7B B6 B3 B5 B6 B6 
 HI HI AE C7 88 55 00 68 5F 7D 09 31 9E 5B 8B 60 93 90 B0 7E B6 B3 B5 B6 B6
 HI HI AE C7 88 55 00 68    7D 09          86 60 92 90 B0 89 B6 B3 B5 B6 B6 
 HI HI AE C7 88 55 00 68 18 7D 09 13 71 5C 86 60 92 90 B0 78 B6 B3 B5 B5 B6 
 HI HI AE C7 88 55 09 60 5E 7C 09 17 7F 9A 87 60 93 90 B0 7E B6 B3 B5 B5 B6 
 HI HI AE C7 88 55 00 68 FE 7D 09 14 47 72 8A 60 92 90 B0 8B B5 B3 B4 B5 B6 
 HI HI AE C7 88 55 00 68 1E 7D 09          8E 50 92 90 B0 65 B5 B2 B4 B5 B6 
 HI HI AE C7 88 55 00 68 53 7D 09 1C 31 9B 7E 60 93 9  B9B  
 
 AS17480C1   2Mar2000
 9:42-9:44(JST)

 HI HI AE C7 88 55 00 68 A6 86 09 61 7F 91 77 60 92 90 B0 93 B6 B3 B5 B5 B6 
 HI HI AE C7 88 55 00 68 64 86 09 67 6E 6D 8C 60 93 90 B0 71 B6 B3 B5 B5 B6

  AS17495C1   3Mar2000
 14:02-14:06(JST)

 HI HI AE C7 88 55 1B 25 FF 0D 00 2E 53 50 8A 60 92 90 B0    B6 B3 B6 B6 B6 
 HI HI AE C7 88 55 11 25 FF 0D 00 2E 71 83 80 60 92 90 B0 A8 B6 B3 B6 B6 B6 
 HI HI AE C7 88 55 05 25 FF 1A 00 2E 76 48 94 5F 92 90 B0    B6 B3 B5 B6 B6 
 HI HI AE C7 88 55 0B 25 FF 0D 00 2E 4F 84 8B 60 92 90 B0 8A B6 B3 B5 B6 B6 
 HI HI AE C7 88 55 10 25 FF 0D 00 2E 90 65 92 60 92 90 B0 62 B6 B3 B5 B6 B6 
 HI HI AE C7 88 55 15 25 FF 0D 00 2E 32 79 8F 60 92 90 B0 85 B6 B3 B5 B6 B6 
 HI HI AE C7 88 55 1A 25 FF 1E 00 2E A1 85 83 60 92 90 B0 74 B6 B3 B5 B6 B6 

 AS17441C1  28Feb2000
 12:23 - 12:32(JST)
 
 HI HI AE C7 88 55 00 68 90 73 09 13 7B 62 94 60 92 90 B0 98 B7 B4 B6 B6 B7 
 HI HI AE C7 88 55 00 68 37 73 09 15 3E 4D 8D 60 92 8F B0 79 B7 B4 B6 B6 B7 
 HI HI AE C7 88 55 00 68 37 73 09 15 A0 5B 8F 60 92 90 B0 99 B6 B4 B6 B6 B7 
 HI HI AE C7 88 55 00 68 0F 73 09 1F 30 73 8F 60 92 90 B0 7C B6 B4 B5 B6 B7 
 HI HI AE C7 88 55 00 68 0F 73 09 1F 91 4A 8C 60 92 90 B0 7F B6 B3 B5 B6 B7 
 HI HI AE C7 88 55 00 68 13 73 09 1A 5E 8D 81 60 92 90 B0 6C B6 B3 B5 B6 B7 
 HI HI AE C7 88 55 00 68 13 73 09 19 55 8E 85 60 92 90 B0 8E B6 B3 B5 B6 B7 
 HI HI AE C7 88 55 00 68 46 73 09 19 9A 85 90 60 92 90 B0 96 B6 B3 B5 B5 B7 
 HI HI AE C7 88 55 00 68 A2 73 09 18 2C 88 84 60 93 90 B0 79 B6 B3 B5 B5 B7 
 HI HI AE C7 88 55 00 68 A2 73 09 18 AD 69 87 60 92 91 B0 82 B5 B3 B4 B5 B7 
 HI HI AE C7 88 55 00 68 28 74 09 08 44 AF 86 60 93 90 B0 74 B5 B3 B4 B5 B7

------------------------- FO-29の軌道要素 ------------------------------        
 
  ■ 軌道要素1:「jamsat−keps:972」より              
            SB KEPS @ AMSAT  $ORB00063.N
                  2Line Orbital Elements 00063.AMSAT

 HR AMSAT ORBITAL ELEMENTS FOR AMATEUR SATELLITES IN NASA FORMAT
 FROM WA5QGD FORT WORTH,TX March 3, 2000
 SEND SUBSCRIBE/UNSUBSCRIBE TO majordomo@amsat.org ONLY
 BID: ORB00063.N

 DECODE 2-LINE ELSETS WITH THE FOLLOWING KEY:
 1 AAAAAU 00  0  0 BBBBB.BBBBBBBB  .CCCCCCCC  00000-0  00000-0 0  DDDZ
 2 AAAAA EEE.EEEE FFF.FFFF GGGGGGG HHH.HHHH III.IIII JJ.JJJJJJJJKKKKKZ
 KEY: A-CATALOGNUM B-EPOCHTIME C-DECAY D-ELSETNUM E-INCLINATION F-RAAN
 G-ECCENTRICITY H-ARGPERIGEE I-MNANOM J-MNMOTION K-ORBITNUM Z-CHECKSUM

 TO ALL RADIO AMATEURS BT

 DECODE 2-LINE ELSETS WITH THE FOLLOWING KEY:
 1 AAAAAU 00  0  0 BBBBB.BBBBBBBB  .CCCCCCCC  00000-0  00000-0 0  DDDZ
 2 AAAAA EEE.EEEE FFF.FFFF GGGGGGG HHH.HHHH III.IIII JJ.JJJJJJJJKKKKKZ
 KEY: A-CATALOGNUM B-EPOCHTIME C-DECAY D-ELSETNUM E-INCLINATION F-RAAN
 G-ECCENTRICITY H-ARGPERIGEE I-MNANOM J-MNMOTION K-ORBITNUM Z-CHECKSUM

 TO ALL RADIO AMATEURS BT

 FO-29
 1 24278U 96046B   00062.24100532  .00000027  00000-0  61619-4 0 03432
 2 24278 098.5898 344.1285 0351746 143.5839 218.9791 13.52701407174838
  
 ■ 軌道要素2:「jamsat−keps:973」より                         
         SB KEPS @ AMSAT  $ORB00063.O
             Orbital Elements  00063.OSCAR

 HR AMSAT ORBITAL ELEMENTS FOR OSCAR SATELLITES
 FROM WA5QGD FORT WORTH,TX March 3, 2000
 SEND SUBSCRIBE/UNSUBSCRIBE TO majordomo@amsat.org ONLY
 BID: ORB00063.O
 TO ALL RADIO AMATEURS BT

  Satellite: FO-29
 Catalog number: 24278
 Epoch time:      00062.24100532
 Element set:    0343
 Inclination:      098.5898 deg
 RA of node:       344.1285 deg
 Eccentricity:    0.0351746
 Arg of perigee:   143.5839 deg
 Mean anomaly:     218.9791 deg
 Mean motion:   13.52701407 rev/day
 Decay rate:        2.7e-07 rev/day^2
 Epoch rev:           17483
 Checksum:              312
-------------------  FO-29(JAS-2)のテレメトリに関する情報  ------------------------
 
 2)上記の3月4日(土)の11:12(JST)のパスのディジタル・テレメトリの
  最後の行の分析結果です.

